THY75 LTFM-CYVR

Flight info

Callsign THY75
Flight time N/A
Altitude 32000
Route TUDBU1D/35L TUDBU Q26 UPAMA DCT BUDOP DCT BILNA DCT REGLI T720 MOLIL DCT PENOR/N0485F340 DCT GIKAV DCT GISOX DCT 70N000E/M084F340 74N020W 76N040W/M084F360 76N060W DCT GELBO/N0479F360 DCT 7330N08000W 71N090W 67N100W 60N110W/N0484F380 DCT YZU DCT 51N120W DCT MERYT/N0398F160 T713 BOOTH LIONN4
Aircraft B77W/H-SDE1E2E3FGHIJ2J3J4J5M1RWXY/LB1D1

Departure

Time 2026-05-07 12:18
Airport İstanbul Airport (LTFM)

Arrival

Time N/A
Airport Vancouver International Airport (CYVR)
Time Latitude Longitude Altitude Speed Heading
2026-05-07 11:47 41.26432 28.73819 333 ft 0 kts 251°
2026-05-07 11:48 41.26432 28.73820 333 ft 0 kts 251°
2026-05-07 12:07 41.26437 28.73840 333 ft 4 kts 257°
2026-05-07 12:07 41.26441 28.73875 333 ft 4 kts 272°
2026-05-07 12:08 41.26437 28.73909 334 ft 4 kts 292°
2026-05-07 12:08 41.26424 28.73938 333 ft 3 kts 311°
2026-05-07 12:08 41.26428 28.73933 336 ft 4 kts 317°
2026-05-07 12:08 41.26452 28.73920 334 ft 4 kts 341°
2026-05-07 12:09 41.26461 28.73916 335 ft 0 kts 339°
2026-05-07 12:11 41.26464 28.73915 335 ft 3 kts 339°
2026-05-07 12:11 41.26518 28.73889 336 ft 13 kts 343°
2026-05-07 12:11 41.26624 28.73878 334 ft 18 kts 359°
2026-05-07 12:12 41.26759 28.73875 337 ft 21 kts 359°
2026-05-07 12:12 41.26902 28.73872 338 ft 19 kts 359°
2026-05-07 12:12 41.27003 28.73869 334 ft 12 kts 359°
2026-05-07 12:12 41.27050 28.73790 336 ft 12 kts 273°
2026-05-07 12:13 41.27049 28.73678 335 ft 12 kts 269°
2026-05-07 12:13 41.27048 28.73564 335 ft 13 kts 269°
2026-05-07 12:13 41.27045 28.73409 335 ft 20 kts 269°
2026-05-07 12:13 41.27043 28.73214 339 ft 21 kts 269°
2026-05-07 12:14 41.27039 28.73043 339 ft 17 kts 262°
2026-05-07 12:14 41.26941 28.72987 336 ft 17 kts 179°
2026-05-07 12:14 41.26822 28.72990 336 ft 17 kts 179°
2026-05-07 12:14 41.26703 28.72993 335 ft 17 kts 179°
2026-05-07 12:15 41.26585 28.72996 335 ft 17 kts 178°
2026-05-07 12:15 41.26466 28.72999 334 ft 17 kts 179°
2026-05-07 12:15 41.26347 28.73002 333 ft 17 kts 179°
2026-05-07 12:15 41.26232 28.72987 335 ft 17 kts 217°
2026-05-07 12:16 41.26211 28.72846 339 ft 15 kts 269°
2026-05-07 12:16 41.26210 28.72704 334 ft 15 kts 269°
2026-05-07 12:16 41.26211 28.72575 334 ft 12 kts 281°
2026-05-07 12:16 41.26281 28.72523 334 ft 12 kts 355°
2026-05-07 12:17 41.26299 28.72523 335 ft 0 kts 359°
2026-05-07 12:17 41.26331 28.72522 334 ft 19 kts 359°
2026-05-07 12:17 41.26773 28.72513 334 ft 110 kts 359°
2026-05-07 12:17 41.27842 28.72488 347 ft 197 kts 359°
2026-05-07 12:18 41.29337 28.72474 1045 ft 225 kts
2026-05-07 12:18 41.30926 28.72527 1886 ft 234 kts
2026-05-07 12:18 41.32643 28.72557 2122 ft 255 kts 359°
2026-05-07 12:18 41.34435 28.72571 2757 ft 261 kts 358°
2026-05-07 12:19 41.36257 28.72567 3433 ft 262 kts 358°
2026-05-07 12:19 41.38073 28.72505 4127 ft 260 kts 347°
2026-05-07 12:19 41.39752 28.71654 4589 ft 260 kts 330°
2026-05-07 12:19 41.41014 28.70801 5073 ft 263 kts 332°
2026-05-07 12:20 41.42173 28.70047 5571 ft 263 kts 332°
2026-05-07 12:20 41.43826 28.68981 6297 ft 264 kts 332°
2026-05-07 12:20 41.45483 28.67916 6958 ft 265 kts 333°
2026-05-07 12:21 41.47154 28.66843 7617 ft 267 kts 333°